Terug naar catalogus

FENGYUN 1C DEB

ActiefSSO
NORAD 29760·DEBRIS·🇨🇳 China

Gelanceerd May 10, 1999 vanaf Taiyuan Satellite Launch Center

Loading…

Volgende Passages (komende 24 uur)

TLE

VersSource: Space-Track

Epoch: Sep 13, 2026, 23:41 UTC

1 29760U 99025BA  26256.98692853  .00000185  00000-0  12185-3 0  9994
2 29760  98.7705 256.4843 0131497 116.8598 244.6085 14.08460911  9661

Volg FENGYUN 1C DEB in realtime met AllMySat

Download on the App Store